Cortez, CO

5:13 PM MST on February 19, 2017 (GMT -0700)
Cortez Municipal

Weather History for KCEZ - May, 2013

Change the Weather History Date:

Thursday, May 23, 2013

  Actual Average Record
Temperature  
Mean Temperature 64 °F 58 °F  
Max Temperature 87 °F 77 °F 91 °F (2000)
Min Temperature 41 °F 38 °F 24 °F (2002)
Degree Days  
Heating Degree Days 1 8  
Month to date heating degree days 211 244  
Since 1 July heating degree days 6354 6314  
Cooling Degree Days 0 0  
Month to date cooling degree days 0 0  
Year to date cooling degree days 0 0  
Growing Degree Days 14 (Base 50)    
Moisture  
Dew Point 16 °F    
Average Humidity 26    
Maximum Humidity 45    
Minimum Humidity 6    
Precipitation  
Precipitation 0.00 in 0.02 in 0.47 in (2007)
Month to date precipitation 0.72 0.76  
Year to date precipitation 3.33 4.98  
Sea Level Pressure  
Sea Level Pressure 29.75 in    
Wind  
Wind Speed 14 mph (SSW)    
Max Wind Speed 32 mph    
Max Gust Speed 41 mph    
Visibility 10 miles    
Events      
T = Trace of Precipitation, MM = Missing Value Source: NWS Daily Summary

Daily Weather History Graph

Daily Weather History Graph

Search for Another Location

Airport or City:

Trip Planner

Search our weather history database for the weather conditions in past years. The results will help you decide how hot, cold, wet, or windy it might be!

Date:

Astronomy

May. 23, 2013 Rise Set
Actual Time 5:59 AM MDT 8:23 PM MDT
Civil Twilight 5:30 AM MDT 8:53 PM MDT
Nautical Twilight 4:53 AM MDT 9:29 PM MDT
Astronomical Twilight 4:12 AM MDT 10:10 PM MDT
Moon 7:00 PM MDT (5/23) 4:44 AM MDT (5/23)
Length of Visible Light 15h 23m
Length of Day
14h 23m
Waxing Gibbous, 97% of the Moon is Illuminated
May 23
Waxing Gibbous
May 24
Full
May 31
Last Quarter
Jun 8
New
Jun 16
First Quarter

Hourly Weather History & Observations

Time (MDT) Temp. Windchill Dew Point Humidity Pressure Visibility Wind Dir Wind Speed Gust Speed Precip Events Conditions
12:53 AM 61.0 °F - 19.9 °F 21% 29.70 in 10.0 mi South 10.4 mph - N/A   Clear
1:53 AM 57.0 °F - 21.9 °F 26% 29.71 in 10.0 mi South 9.2 mph - N/A   Clear
2:53 AM 50.0 °F - 21.0 °F 32% 29.75 in 10.0 mi NE 8.1 mph - N/A   Clear
3:53 AM 50.0 °F - 21.9 °F 33% 29.75 in 10.0 mi ENE 5.8 mph - N/A   Clear
4:53 AM 44.1 °F 42.5 °F 23.0 °F 43% 29.76 in 10.0 mi WNW 3.5 mph - N/A   Clear
5:53 AM 43.0 °F - 23.0 °F 45% 29.78 in 10.0 mi Calm Calm - N/A   Clear
6:53 AM 48.9 °F - 24.1 °F 38% 29.78 in 10.0 mi Variable 4.6 mph - N/A   Clear
7:53 AM 61.0 °F - 26.1 °F 26% 29.78 in 10.0 mi Calm Calm - N/A   Clear
8:53 AM 70.0 °F - 21.9 °F 16% 29.80 in 10.0 mi South 12.7 mph - N/A   Clear
9:53 AM 73.0 °F - 16.0 °F 11% 29.80 in 10.0 mi South 13.8 mph - N/A   Clear
10:53 AM 75.0 °F - 14.0 °F 10% 29.80 in 10.0 mi SSW 16.1 mph 23.0 mph N/A   Clear
11:53 AM 78.1 °F - 12.9 °F 8% 29.78 in 10.0 mi SSW 20.7 mph 31.1 mph N/A   Clear
12:53 PM 80.1 °F - 15.1 °F 9% 29.76 in 10.0 mi SSW 15.0 mph 21.9 mph N/A   Clear
1:53 PM 82.9 °F - 12.9 °F 7% 29.73 in 10.0 mi South 13.8 mph 29.9 mph N/A   Clear
2:53 PM 86.0 °F - 14.0 °F 7% 29.73 in 10.0 mi SSW 24.2 mph 35.7 mph N/A   Clear
3:53 PM 86.0 °F - 10.9 °F 6% 29.70 in 10.0 mi SSW 26.5 mph 36.8 mph N/A   Clear
4:53 PM 86.0 °F - 10.9 °F 6% 29.70 in 10.0 mi SSW 26.5 mph 39.1 mph N/A   Clear
5:53 PM 84.0 °F - 10.0 °F 6% 29.70 in 10.0 mi SSW 25.3 mph 36.8 mph N/A   Clear
6:53 PM 82.0 °F - 9.0 °F 6% 29.69 in 10.0 mi SSW 25.3 mph 33.4 mph N/A   Clear
7:53 PM 77.0 °F - 9.0 °F 7% 29.68 in 10.0 mi SW 17.3 mph 23.0 mph N/A   Clear
8:53 PM 69.1 °F - 12.0 °F 11% 29.71 in 10.0 mi South 13.8 mph - N/A   Clear
9:53 PM 66.0 °F - 9.0 °F 11% 29.74 in 10.0 mi South 12.7 mph - N/A   Clear
10:53 PM 64.0 °F - 14.0 °F 14% 29.77 in 10.0 mi South 11.5 mph - N/A   Clear
11:53 PM 63.0 °F - 14.0 °F 15% 29.78 in 10.0 mi SSW 10.4 mph - N/A   Clear